Other Surface Observations
Issued by NWS

Current Version | Previous Version | Text Only | Print | Product List | Glossary On
Versions: 1 2 3 4 5 6 7 8 9 10 11 12 13 14 15 16 17 18 19 20 21 22 23 24 25 26 27 28 29 30 31 32 33 34 35 36 37 38 39 40 41 42 43 44 45 46 47 48 49 50
810
SXUS52 KTAE 110818
OSOTAE
OSOTAE
North Florida/South Alabama/Southwest Georgia Weather Roundup
National Weather Service Tallahassee Florida
300 AM EST THU FEB 11 2016

Note: "fair" indicates few or no clouds below 12,000 feet with no
significant weather and/or obstructions to visibility.

!FLZ017-115-028-034-025-110900
...North Florida...

CITY           SKY/WX    TMP DP  RH WIND       PRES   REMARKS
TALLAHASSEE    CLEAR     30  23  75 CALM      30.23F
APALACHICOLA   CLEAR     36  33  89 CALM      30.22F
PERRY          CLEAR     30  26  84 CALM      30.26S
CROSS CITY       N/A     30  27  88 CALM      30.26R
JACKSONVILLE   CLEAR     34  21  59 W5        30.25R WCI  30
$$

!FLZ112-006-005-002-011-110900
...Florida Panhandle...

CITY           SKY/WX    TMP DP  RH WIND       PRES   REMARKS
MARIANNA       PTCLDY    32  26  78 CALM      30.23S
BONIFAY        FAIR      31  29  92 CALM      30.24S
PANAMA CITY NW FAIR      33  30  88 CALM      30.22R
TYNDALL AFB    CLEAR     52  42  68 W8        30.22S
TYND DRONE APT FAIR      55  45  70 MISG      30.22S
DE FUNIAK SPR  FAIR      42  32  67 NW3       30.23R
EGLIN AFB      CLEAR     33  29  83 N5        30.21R WCI  29
DESTIN         CLEAR     49  39  68 NW5       30.22R
HURLBURT       CLEAR     35  32  87 N7        30.21R WCI  29
CRESTVIEW      PTCLDY    28  26  92 CALM      30.24R
PENSACOLA      CLEAR     47  37  68 W6        30.21S WCI  44
$$

!ALZ063-066-110900
...South Alabama...

CITY           SKY/WX    TMP DP  RH WIND       PRES   REMARKS
DOTHAN         CLEAR     36  21  54 SW5       30.25R WCI  32
OZARK CAIRNS   CLEAR     33  24  71 CALM      30.21R
FT RUCKER HELI CLEAR     29  23  78 CALM      30.22R
RUCKER HELI 3  FAIR      35  26  71 SW3       30.22R
RUCKER HELI 2  NOT AVBL
FLORALA APT    PTCLDY    34  29  82 SW3       30.23R
ANDALUSIA      PTCLDY    34  27  75 CALM      30.22R
TROY           CLEAR     30  24  78 CALM      30.21S
EUFALA         FAIR      27  23  85 CALM      30.19F
MOBILE         CLEAR     45  37  73 SW6       30.21S WCI  42
$$

!GAZ120>161-110900
...Southwest and South Central Georgia...

CITY           SKY/WX    TMP DP  RH WIND       PRES   REMARKS
THOMASVILLE    FAIR      32  28  86 CALM      30.24S
BAINBRIDGE     PTCLDY    32  27  80 CALM      30.24S
MOODY AFB      PTCLDY    30  24  78 SW5       30.22F WCI  25
VALDOSTA       CLEAR     31  24  75 CALM      30.24F
MOULTRIE       CLEAR     32  27  80 CALM      30.23S
BLAKELY        PTCLDY    32  30  93 CALM      30.23S
ALBANY         PTCLDY    29  22  75 CALM      30.24S
TIFTON         FAIR      31  27  83 CALM      30.22S
FITZGERALD     FAIR      30  28  92 S3        30.25R
CORDELE        FAIR      32  23  68 CALM      30.22F
AMERICUS       FAIR      28  23  80 CALM      30.22S
HOMERVILLE     FAIR      32  30  93 CALM      30.24S
$$

!GMZ750-755-770-775-110900
...Coastal and Buoy Obs...

STATION/POSITION TIME  TEMP    WIND        PRES    VSBY  WAVE
                       AIR SEA DIR/SP/G                  HT/PER
                 (UTC) (F)     (DEG/KT/KT) (MB)    (MI)  (FT/S)
KEATON BEACH     0800   41      40/  3/  4 1024.0R
CEDAR KEY        0800   46     360/  3/  3 1024.8R
C TOWER          NOT AVBL
APALACHICOLA BUO 0750   59 66  270/ 10/ 12 1023.9F         5/ 8
PANAMA CITY BUOY 0750   60 68  260/ 12/ 17 1023.9F         3/ 8
MOBILE BUOY      NOT AVBL
ORANGE BCH AL BU 0750   58 64  250/ 21/ 25 1022.4F         4/ 5
$$




USA.gov is the U.S. government's official web portal to all federal, state and local government web resources and services.